Flag for Uzbekistan Weather past 2 weeks in Tashkent, Uzbekistan

Now
79 °F

Partly sunny.


Feels Like: 78 °F
Forecast: 63 / 77 °F
Wind: 15 mph from West

Location: Tashkent

Current Time: May 23, 2015 at 4:19:45 PM

Latest Report: May 23, 2015 at 3:30 PM


Visibility: N/A

Pressure: 29.86 "Hg

Humidity: 21%

Dew point: 36 °F

Location of TashkentLocation

Historic Weather in Tashkent — Graph

°F

Tashkent temperature yesterday

Maximum temperature yesterday: 79 °F (at 1:30 PM)
Minimum temperature yesterday: 57 °F (at 4:30 AM)
Average temperature yesterday: 70 °F

Past Weeks' High & Low Weather Summary

 TemperatureHumidityPressure
High95 °F (May 15, 1:30 PM)100% (May 8, 10:30 PM)30.09 "Hg (May 8, 10:30 PM)
Low57 °F (May 22, 4:30 AM)12% (May 22, 5:30 PM)29.62 "Hg (May 16, 6:00 AM)
Average73 °F47%29.94 "Hg
* Reported May 8 3:00 PM — May 23 3:00 PM, Tashkent, Weather by CustomWeather, © 2015

Note: Actual official high and low records may vary slightly from our data, if they occured in-between our weather recording intervals... More about our weather records

Advertising

Tashkent weather history for previous 24 hours

 ConditionsComfort  
Time TempWeatherWind HumidityBarometerVisibility
3:00 PM
Sat, May 23
79 °FPartly sunny.13 mph21%29.86 "HgN/A
2:30 PM79 °FPartly sunny.16 mph26%29.86 "HgN/A
2:00 PM77 °FBroken clouds.12 mph26%29.86 "HgN/A
1:30 PM79 °FBroken clouds.9 mph28%29.86 "HgN/A
1:00 PM79 °FBroken clouds.9 mph24%29.86 "HgN/A
12:30 PM77 °FBroken clouds.9 mph28%29.86 "HgN/A
12:00 PM77 °FBroken clouds.6 mph26%29.86 "HgN/A
11:30 AM75 °FBroken clouds.9 mph31%29.86 "HgN/A
11:00 AM75 °FBroken clouds.7 mph27%29.86 "HgN/A
10:30 AM75 °FBroken clouds.8 mph27%29.86 "HgN/A
10:00 AM75 °FBroken clouds.2 mph25%29.86 "HgN/A
9:30 AM75 °FBroken clouds.5 mph27%29.86 "HgN/A
8:30 AM70 °FBroken clouds.8 mph31%29.86 "HgN/A
8:00 AM66 °FBroken clouds.12 mph37%29.86 "HgN/A
7:30 AM68 °FBroken clouds.3 mph38%29.86 "HgN/A
7:00 AM66 °FPartly sunny.3 mph40%29.86 "HgN/A
6:30 AM64 °FBroken clouds.6 mph46%29.86 "HgN/A
6:00 AM63 °FBroken clouds.7 mph45%29.86 "HgN/A
5:30 AM61 °FBroken clouds.7 mph48%29.86 "HgN/A
5:00 AM61 °FBroken clouds.6 mph48%29.86 "HgN/A
4:30 AM59 °FPassing clouds.7 mph51%29.86 "HgN/A
4:00 AM57 °FPassing clouds.9 mph55%29.86 "HgN/A
3:30 AM59 °FPassing clouds.7 mph51%29.89 "HgN/A
3:00 AM57 °FPassing clouds.9 mph55%29.89 "HgN/A
2:30 AM61 °FPartly cloudy.7 mph48%29.89 "HgN/A
2:00 AM59 °FPartly cloudy.7 mph55%29.89 "HgN/A
1:30 AM61 °FPassing clouds.6 mph48%29.92 "HgN/A
1:00 AM59 °FClear.8 mph51%29.92 "Hg10 mi
12:30 AM59 °FClear.9 mph51%29.92 "Hg10 mi
12:00 AM61 °FClear.8 mph48%29.92 "Hg10 mi
11:30 PM
Fri, May 22
63 °FClear.7 mph45%29.95 "Hg10 mi
11:00 PM66 °FPassing clouds.6 mph35%29.95 "HgN/A
10:30 PM66 °FPartly cloudy.7 mph40%29.95 "HgN/A
10:00 PM70 °FPassing clouds.6 mph31%29.98 "HgN/A
9:30 PM72 °FPassing clouds.5 mph27%29.98 "HgN/A
9:00 PM72 °FPassing clouds.6 mph25%29.95 "HgN/A
8:30 PM73 °FClear.5 mph22%29.95 "Hg10 mi
8:00 PM73 °FClear.1 mph20%29.95 "Hg10 mi
7:30 PM75 °FSunny.2 mph16%29.95 "Hg10 mi
7:00 PM75 °FPassing clouds.5 mph18%29.95 "HgN/A
6:30 PM77 °FSunny.7 mph14%29.95 "Hg10 mi
6:00 PM77 °FSunny.10 mph13%29.95 "Hg10 mi
5:30 PM79 °FPassing clouds.9 mph12%29.95 "HgN/A
5:00 PM79 °FPassing clouds.8 mph20%29.95 "HgN/A
4:30 PM79 °FPassing clouds.6 mph16%29.98 "HgN/A
4:00 PM79 °FPassing clouds.8 mph17%29.98 "HgN/A
Weather by CustomWeather, © 2015

See weather overviewHow to use our weather pages